Content
SEND FEEDBACK

Daily
Averages
Monthly
Summary
Spain

MÁLAGA, SPAIN


Home > Europe > Spain
Elevation: 7 meters     Latitude: 36 40N     Longitude: 004 29W

WEATHER
 
SELECT A DAY
Number of Records: 318,897;   Date Range: 7/1/96 - 9/18/14
 
SHARE

PRINT THIS DATA

[ ← Previous Day ]
WEATHER ALMANAC - 23 APRIL, 2013
[ Next Day → ]
[ °F ]   °C
Weather ElementAverageHighLow
Temperature16.5 °C19.4 °C (2:00 pm)12 °C (7:00 am)
Dewpoint11.7 °C14 °C (2:30 am)10 °C (2:00 pm)
Humidity73.6 %94 % (2:30 am)45 % (2:00 pm)
Barometer1019 hPa1021.3 hPa (2:00 pm)1017.3 hPa (12:30 am)
Wind Speed16.3 km/h29.6 km/h (12:30 pm)
Weather ElementAverage
Visibility10.6 km
Wind DirectionSSE (140.8 °)

Weather ElementTotal
Precipitation---
Heating Degree Days2.6 (Base 18.3)
Growing Degree Days5.7 (Base 10)
Averaged from 51 records on 23 April, 2013
WEATHER CONDITIONS BREAKOUT
WIND DIRECTION BREAKOUT
WEATHER BY HOUR - 23 APRIL, 2013
[ °F ]   °C
Local TimeTemperatureDewpointHumidityBarometerVisibilityWind DirectionWind SpeedGust SpeedPrecipitationEventsConditions
12:30 AM17 °C13 °C77 %1017.3 hPa10 kmESE (120°)14.8 km/hScattered Clouds
1:00 AM17 °C13 °C77 %1017.3 hPa10 kmESE (120°)13 km/hScattered Clouds
1:30 AM17 °C13 °C77 %1017.3 hPa10 kmESE (120°)14.8 km/hScattered Clouds
2:00 AM16.1 °C10.6 °C60 %1017.9 hPa6.4 kmEast (90°)14.8 km/hRainRain
2:00 AM16 °C13 °C82 %1017.3 hPa6.9 kmEast (90°)11.1 km/hRainRain
2:30 AM15 °C14 °C94 %1017.3 hPa5 kmESE (120°)9.3 km/hRainRain
3:00 AM15 °C14 °C94 %1017.3 hPa6.9 kmEast (80°)13 km/hRainLight Rain
3:30 AM15 °C14 °C94 %1017.3 hPa10 kmEast (90°)13 km/hMostly Cloudy
4:00 AM14 °C12 °C88 %1017.3 hPa10 kmEast (100°)11.1 km/hScattered Clouds
4:30 AM14 °C12 °C88 %1017.3 hPa10 kmVariable3.7 km/hScattered Clouds
5:00 AM14 °C12 °C88 %1017.3 hPa10 kmVariable1.9 km/hScattered Clouds
5:30 AM13 °C12 °C94 %1017.3 hPa10 kmWNW (290°)5.6 km/hScattered Clouds
6:00 AM13 °C12 °C94 %1017.3 hPa10 kmWest (280°)3.7 km/hPartly Cloudy
6:30 AM13 °C12 °C94 %1017.3 hPa10 kmWNW (290°)7.4 km/hScattered Clouds
7:00 AM12 °C11 °C94 %1017.3 hPa10 kmWNW (290°)3.7 km/hPartly Cloudy
7:30 AM13 °C12 °C94 %1017.9 hPa10 kmNW (310°)3.7 km/hScattered Clouds
8:00 AM13.3 °C11.7 °C88 %1018.6 hPa19.3 kmNW (310°)5.6 km/hPartly Cloudy
8:00 AM13 °C12 °C94 %1017.9 hPa10 kmNW (310°)5.6 km/hScattered Clouds
8:30 AM13 °C12 °C94 %1017.9 hPa10 kmWNW (300°)3.7 km/hMostly Cloudy
9:00 AM14 °C13 °C94 %1019 hPa10 kmWNW (300°)3.7 km/hScattered Clouds
9:30 AM17 °C12 °C72 %1019 hPa10 kmEast (100°)20.4 km/hScattered Clouds
10:00 AM17 °C12 °C72 %1019 hPa10 kmESE (110°)24.1 km/hScattered Clouds
10:30 AM17 °C12 °C72 %1020 hPa10 kmESE (110°)22.2 km/hScattered Clouds
11:00 AM18 °C12 °C68 %1020 hPa10 kmESE (110°)24.1 km/hScattered Clouds
11:30 AM18 °C12 °C68 %1020 hPa10 kmESE (110°)24.1 km/hScattered Clouds
12:00 PM18 °C12 °C68 %1020 hPa10 kmESE (120°)24.1 km/hScattered Clouds
12:30 PM19 °C11 °C60 %1021 hPa10 kmESE (110°)29.6 km/hScattered Clouds
1:00 PM19 °C11 °C60 %1021 hPa10 kmESE (120°)27.8 km/hPartly Cloudy
1:30 PM19 °C11 °C60 %1021 hPa10 kmESE (120°)27.8 km/hPartly Cloudy
2:00 PM19.4 °C10 °C45 %1021.3 hPa25.7 kmESE (120°)27.8 km/hScattered Clouds
2:00 PM19 °C11 °C60 %1021 hPa10 kmESE (120°)27.8 km/hPartly Cloudy
2:30 PM19 °C11 °C60 %1021 hPa10 kmSE (130°)24.1 km/hPartly Cloudy
3:00 PM19 °C11 °C60 %1020 hPa10 kmESE (120°)24.1 km/hPartly Cloudy
3:30 PM19 °C11 °C60 %1020 hPa10 kmSE (130°)22.2 km/hPartly Cloudy
4:00 PM19 °C11 °C60 %1020 hPa10 kmSE (130°)20.4 km/hPartly Cloudy
4:30 PM19 °C11 °C60 %1020 hPa10 kmESE (120°)20.4 km/hPartly Cloudy
5:00 PM19 °C12 °C64 %1020 hPa10 kmESE (120°)20.4 km/hPartly Cloudy
5:30 PM19 °C11 °C60 %1019 hPa10 kmESE (120°)22.2 km/hPartly Cloudy
6:00 PM19 °C11 °C60 %1019 hPa10 kmESE (110°)22.2 km/hPartly Cloudy
6:30 PM19 °C11 °C60 %1019 hPa10 kmESE (110°)22.2 km/hPartly Cloudy
7:00 PM18 °C11 °C64 %1019 hPa10 kmESE (110°)22.2 km/hScattered Clouds
7:30 PM17 °C11 °C68 %1019 hPa10 kmESE (110°)20.4 km/hScattered Clouds
8:00 PM18.3 °C10.6 °C49 %1020 hPa30.6 kmESE (110°)18.5 km/hPartly Cloudy
8:00 PM17 °C11 °C68 %1019 hPa10 kmESE (110°)18.5 km/hScattered Clouds
8:30 PM17 °C11 °C68 %1020 hPa10 kmESE (110°)16.7 km/hPartly Cloudy
9:00 PM16 °C11 °C72 %1020 hPa10 kmESE (110°)14.8 km/hPartly Cloudy
9:30 PM16 °C11 °C72 %1020 hPa10 kmESE (110°)14.8 km/hPartly Cloudy
10:00 PM16 °C11 °C72 %1021 hPa10 kmESE (110°)14.8 km/hPartly Cloudy
10:30 PM16 °C11 °C72 %1021 hPa10 kmESE (120°)14.8 km/hMostly Cloudy
11:00 PM16 °C11 °C72 %1021 hPa10 kmESE (120°)14.8 km/hMostly Cloudy
11:30 PM16 °C10 °C68 %1021 hPa10 kmESE (110°)20.4 km/hMostly Cloudy
Hourly data recorded from LEMG, located 0 kilometers away from Málaga, Spain







STORIES FROM OUR PARTNERS